User: anonymous   Login
Location: Nelson
(41.2830°S, 173.2830°E)
Time: 01:01:23
(UTC+13:00)
Language:

Meteor 1-26 Rocket - Orbit

View from above orbital plane
View from above orbital plane
View from above satellite
View from above satellite

Ground track
Ground track

The orbit data is extracted from the following two-line orbital elements,

1  9482U 76102B   19326.12370068  .00000048  00000-0  20544-4 0  9998
2  9482  81.2632 332.3976 0070210 195.0054 164.9034 14.07559157212707
Epoch (UTC): 22 November 2019 02:58:07
Eccentricity: 0.0070210
inclination: 81.2632°
perigee height: 817 km
apogee height: 918 km
right ascension of ascending node: 332.3976°
argument of perigee: 195.0054°
revolutions per day: 14.07559157
mean anomaly at epoch: 164.9034°
orbit number at epoch: 21270

The dashed part of the orbit path shows where the satellite is in the earth's shadow,  

DLR